Preview of NWS' New Version of Forecast
This preview is not operational and should not be used for support decisions.

Regional Weather Roundup (RWR)

Issued by National Weather Service (NWS)

                            
000
ASUS43 KBIS 171802
RWRND 

NORTH DAKOTA REGIONAL WEATHER ROUNDUP
NATIONAL WEATHER SERVICE BISMARCK ND
100 PM CDT WED APR 17 2019

NOTE: "FAIR" INDICATES FEW OR NO CLOUDS BELOW 12,000 FEET WITH NO
SIGNIFICANT WEATHER AND/OR OBSTRUCTIONS TO VISIBILITY.


NDZ001>003-009>011-017-171900-
NORTHWEST NORTH DAKOTA
  
CITY           SKY/WX    TMP DP  RH WIND       PRES   REMARKS
WILLISTON      LGT RAIN  46  42  86 S5        29.85F FOG              
6HR MIN TEMP:  43; 6HR MAX TEMP:  46; 6HR PCP:  0.11;                

MINOT          LGT RAIN  48  42  80 E3        29.86F                  
$$
 
NDZ018>021-031>035-040>046-171900-
SOUTHWEST NORTH DAKOTA
  
CITY           SKY/WX    TMP DP  RH WIND       PRES   REMARKS
BISMARCK       LGT RAIN  44  42  93 CALM      29.88S                  
6HR MIN TEMP:  42; 6HR MAX TEMP:  44; 6HR PCP:  0.05;                

DICKINSON      CLOUDY    45  41  86 N8        29.83F                  
GARRISON         N/A     43  41  93 S6        29.86F                  
6HR MIN TEMP:  40; 6HR MAX TEMP:  43; 6HR PCP:  0.11;                

HETTINGER ARPT CLOUDY    45  40  82 NW17      29.87S                  
$$
 
NDZ004>008-012>016-024-026-027-054-171900-
NORTHEAST NORTH DAKOTA
  
CITY           SKY/WX    TMP DP  RH WIND       PRES   REMARKS
GRAND FORKS    CLOUDY    45  42  89 NE7       29.87F                  
GRND FRKS AFB  LGT RAIN  46  46 100 NE7       29.88F                  
DEVILS LAKE    LGT RAIN  47  43  86 NE7       29.87F                  
$$
 
NDZ022-023-025-028>030-036>039-047>053-171900-
SOUTHEAST NORTH DAKOTA
  
CITY           SKY/WX    TMP DP  RH WIND       PRES   REMARKS
FARGO          LGT RAIN  48  43  82 N10       29.80F                  
6HR MIN TEMP:  45; 6HR MAX TEMP:  48; 6HR PCP: TRACE;                

JAMESTOWN      CLOUDY    45  43  93 NE12      29.83F                  
$$